Location: Banff
(51.1667°N, 115.5667°W)
Time: 11:02:32
(UTC+00:00)

A-11 Canister half - Pass Details

Date: 29 November 2020
Orbit: 1524 x 1684 km, 47.3° (Epoch: 20 January)

Event Time Altitude Azimuth Distance (km) Brightness Sun altitude
Rises 12:39:39 0° 209° (SSW) 4,927 11.4 -24.6°
Reaches altitude 10° 12:43:11 10° 200° (SSW) 3,941 11.0 -24.0°
Maximum altitude 12:51:55 35° 140° (SE) 2,483 10.4 -22.7°
Drops below altitude 10° 13:00:32 10° 81° (E) 3,896 12.2 -21.3°
Sets 13:04:00 0° 73° (ENE) 4,864 12.7 -20.8°
